Flag for New Zealand Weather past 2 weeks in Auckland, New Zealand

Now
59 °F

Passing clouds.


Feels Like: 58 °F
Forecast: 61 / 68 °F
Wind: 7 mph from North

Location: Auckland Airport


UV Index: 3 (Moderate)

Visibility: N/A


Pressure: 29.80 "Hg

Humidity: 94%

Dew point: 57 °F

Location of AucklandLocation

Historic Weather in Auckland

°F

Auckland temperature yesterday

Maximum temperature yesterday: 73 °F (at 1:30 PM)
Minimum temperature yesterday: 61 °F (at 8:30 PM)
Average temperature yesterday: 65 °F

Past Weeks' High & Low Weather Summary

 TemperatureHumidityPressure
High75 °F (Apr 10, 3:00 PM)100% (Apr 5, 8:30 AM)30.21 "Hg (Apr 5, 8:30 AM)
Low52 °F (Apr 13, 5:30 AM)53% (Apr 13, 12:00 PM)29.36 "Hg (Apr 17, 10:30 AM)
Average66 °F84%29.90 "Hg
* Reported Apr 5 2:00 AM — Apr 20 1:30 AM, Auckland, Weather by CustomWeather, © 2014

Note: Actual official high and low records may vary slightly from our data, if they occured in-between our weather recording intervals... More about our weather records

Advertising

Historic Weather Conditions — Data for Previous 24 hours

 ConditionsComfort  
Time TempWeatherWind HumidityBarometerVisibility
1:30 AM
Apr 20
61 °FPassing clouds.8 mph94%29.80 "HgN/A
1:00 AM59 °FPassing clouds.7 mph94%29.80 "HgN/A
12:30 AM59 °FPassing clouds.6 mph94%29.80 "HgN/A
12:00 AM61 °FPassing clouds.8 mph88%29.80 "HgN/A
11:30 PM
Apr 19
61 °FPassing clouds.5 mph88%29.80 "HgN/A
11:00 PM61 °FCool.6 mph88%29.80 "HgN/A
10:30 PM61 °FPassing clouds.6 mph88%29.80 "HgN/A
10:00 PM61 °FOvercast.3 mph88%29.80 "HgN/A
9:30 PM61 °FRain. Partly cloudy.8 mph88%29.80 "Hg4 mi
9:00 PM61 °FPassing clouds.6 mph88%29.77 "HgN/A
8:30 PM61 °FPassing clouds.5 mph88%29.77 "HgN/A
8:00 PM63 °FPassing clouds.5 mph88%29.77 "HgN/A
7:30 PM64 °FSprinkles. Passing clouds.8 mph83%29.77 "HgN/A
7:00 PM63 °FPassing clouds.5 mph88%29.77 "HgN/A
6:30 PM63 °FPassing clouds.8 mph83%29.77 "HgN/A
6:00 PM64 °FPassing clouds.9 mph83%29.74 "HgN/A
5:30 PM66 °FMild.13 mph73%29.74 "HgN/A
5:00 PM66 °FMild.13 mph73%29.74 "HgN/A
4:30 PM66 °FBroken clouds.12 mph83%29.74 "HgN/A
4:00 PM68 °FScattered clouds.15 mph73%29.74 "HgN/A
3:30 PM68 °FBroken clouds.14 mph69%29.74 "HgN/A
3:00 PM70 °FPartly sunny.14 mph73%29.74 "HgN/A
2:30 PM68 °FBroken clouds.16 mph73%29.74 "HgN/A
2:00 PM66 °FBroken clouds.22 mph73%29.74 "HgN/A
1:30 PM73 °FMild.16 mph65%29.71 "HgN/A
1:00 PM72 °FPartly sunny.12 mph73%29.74 "HgN/A
12:30 PM70 °FPassing clouds.15 mph78%29.74 "HgN/A
12:00 PM68 °FScattered clouds.12 mph83%29.74 "HgN/A
11:30 AM68 °FMostly cloudy.10 mph83%29.74 "HgN/A
11:00 AM68 °FSprinkles. Partly sunny.7 mph88%29.74 "HgN/A
10:30 AM68 °FSprinkles. Mostly cloudy.10 mph83%29.77 "HgN/A
10:00 AM68 °FBroken clouds.12 mph83%29.77 "HgN/A
9:30 AM68 °FScattered clouds.12 mph83%29.74 "HgN/A
9:00 AM66 °FPartly sunny.8 mph94%29.77 "HgN/A
8:30 AM64 °FBroken clouds.6 mph94%29.74 "HgN/A
8:00 AM64 °FScattered clouds.6 mph94%29.74 "HgN/A
7:30 AM63 °FMild.7 mph94%29.74 "HgN/A
7:00 AM64 °FPartly sunny.6 mph88%29.74 "HgN/A
6:30 AM64 °FPartly sunny.8 mph88%29.71 "HgN/A
6:00 AM64 °FPartly sunny.12 mph94%29.71 "HgN/A
5:30 AM64 °FPassing clouds.10 mph94%29.71 "HgN/A
5:00 AM64 °FPassing clouds.10 mph94%29.71 "HgN/A
4:30 AM66 °FPassing clouds.9 mph94%29.71 "HgN/A
4:00 AM64 °FPassing clouds.6 mph94%29.71 "HgN/A
3:30 AM64 °FSprinkles. Partly cloudy.8 mph94%29.71 "HgN/A
3:00 AM66 °FPassing clouds.10 mph88%29.71 "HgN/A
2:30 AM66 °FLight rain. Passing clouds.12 mph94%29.74 "HgN/A
2:00 AM66 °FPartly cloudy.12 mph94%29.74 "HgN/A
Weather by CustomWeather, © 2014

See weather overview